Ukiah, CA

10:53 PM PST on November 12, 2019 (GMT -0800)
Ukiah Municipal

Weather History for KUKI - October, 2019

Change the Weather History Date:

Wednesday, October 23, 2019

  Actual Average Record
Temperature  
Mean Temperature 68 °F 58 °F  
Max Temperature 90 °F 74 °F 99 °F (1959)
Min Temperature 47 °F 43 °F 29 °F (1916)
Degree Days  
Heating Degree Days 0 7  
Month to date heating degree days 106 100  
Since 1 July heating degree days 139 133  
Cooling Degree Days 4 0  
Month to date cooling degree days 15 19  
Year to date cooling degree days 1133 832  
Growing Degree Days 18 (Base 50)    
Moisture  
Dew Point 38 °F    
Average Humidity 46    
Maximum Humidity 86    
Minimum Humidity 8    
Precipitation  
Precipitation 0.00 in 0.08 in 2.23 in (1989)
Month to date precipitation 0.05 1.03  
Year to date precipitation 35.12 25.00  
Snow  
Snow 0.00 in - - ()
Month to date snowfall 0.0  
Since 1 July snowfall 0.0  
Since 1 September snowfall 0.0  
Snow Depth 0.00 in    
Sea Level Pressure  
Sea Level Pressure 30.01 in    
Wind  
Wind Speed 1 mph ()    
Max Wind Speed 15 mph    
Max Gust Speed 19 mph    
Visibility 10.0 miles    
Events      
T = Trace of Precipitation, MM = Missing Value Source: Averaged Metar Reports

Daily Weather History Graph

Daily Weather History Graph

Search for Another Location

Airport or City:

Astronomy

Oct. 23, 2019 Rise Set
Actual Time 7:30 AM PDT 6:23 PM PDT
Civil Twilight 7:03 AM PDT 6:50 PM PDT
Nautical Twilight 6:32 AM PDT 7:21 PM PDT
Astronomical Twilight 6:01 AM PDT 7:52 PM PDT
Moon 1:58 AM PDT (10/23) 4:14 PM PDT (10/23)
Length of Visible Light 11h 47m
Length of Day
10h 52m
Waning Crescent, 25% of the Moon is Illuminated
Oct 23
Waning Crescent
Oct 27
New
Nov 4
First Quarter
Nov 12
Full
Nov 19
Last Quarter

Hourly Weather History & Observations

Time (PDT) Temp. Dew Point Humidity Pressure Visibility Wind Dir Wind Speed Gust Speed Precip Events Conditions
12:56 AM 57.9 °F 48.0 °F 70% 30.09 in 10.0 mi Calm Calm - N/A   Clear
1:56 AM 54.0 °F 46.0 °F 75% 30.09 in 10.0 mi Calm Calm - N/A   Clear
2:56 AM 54.0 °F 46.9 °F 77% 30.09 in 10.0 mi Calm Calm - N/A   Clear
3:56 AM 52.0 °F 45.0 °F 77% 30.07 in 10.0 mi Calm Calm - N/A   Clear
4:56 AM 51.1 °F 45.0 °F 80% 30.07 in 10.0 mi Calm Calm - N/A   Clear
5:56 AM 50.0 °F 45.0 °F 83% 30.08 in 10.0 mi Calm Calm - N/A   Clear
6:56 AM 50.0 °F 44.1 °F 80% 30.06 in 10.0 mi Calm Calm - N/A   Clear
7:56 AM 48.9 °F 44.1 °F 83% 30.06 in 10.0 mi Calm Calm - N/A   Clear
8:56 AM 57.0 °F 46.0 °F 67% 30.07 in 10.0 mi Calm Calm - N/A   Clear
9:56 AM 62.1 °F 46.9 °F 58% 30.05 in 10.0 mi Calm Calm - N/A   Clear
10:56 AM 69.1 °F 46.0 °F 44% 30.04 in 10.0 mi Calm Calm - N/A   Clear
11:56 AM 78.1 °F 44.1 °F 30% 30.01 in 10.0 mi Calm Calm - N/A   Clear
12:56 PM 82.9 °F 42.1 °F 24% 29.99 in 10.0 mi Variable 3.5 mph - N/A   Clear
1:56 PM 86.0 °F 35.1 °F 16% 29.97 in 10.0 mi Calm Calm - N/A   Clear
2:56 PM 88.0 °F 33.1 °F 14% 29.94 in 10.0 mi Calm Calm - N/A   Clear
3:56 PM 90.0 °F 24.1 °F 9% 29.93 in 10.0 mi North 10.4 mph - N/A   Clear
4:56 PM 89.1 °F 19.9 °F 8% 29.93 in 10.0 mi North 8.1 mph - N/A   Clear
5:56 PM 80.1 °F 25.0 °F 13% 29.94 in 10.0 mi West 5.8 mph - N/A   Clear
6:56 PM 75.9 °F 21.9 °F 13% 29.95 in 10.0 mi NW 3.5 mph - N/A   Clear
7:56 PM 66.0 °F 30.9 °F 27% 29.96 in 10.0 mi Calm Calm - N/A   Clear
8:56 PM 60.1 °F 33.1 °F 36% 29.98 in 10.0 mi WSW 3.5 mph - N/A   Clear
9:56 PM 57.0 °F 30.9 °F 37% 29.99 in 10.0 mi Calm Calm - N/A   Clear
10:56 PM 60.1 °F 28.0 °F 30% 29.99 in 10.0 mi NNW 4.6 mph - N/A   Clear
11:56 PM 54.0 °F 30.9 °F 41% 30.00 in 10.0 mi SE 4.6 mph - N/A   Clear